Погода в Краснинском

Россия / Липецкая область     52°51′26″N   38°47′20″E
темп.,
°C
ветер,
м/с
пор.,
м/с
влажн.,
%
обл.,
%
осадки,
мм/ч
давл.,
гПа
погр.,
м
9 марта, вт
вт900:00−11ссз228899 0.0 101021
03:00−13ссз349265 0.0 101144
06:00−13ссз479594 0.0 1012175
09:00−12с489390 0.0 1014277
12:00−11ссз468955 0.0 1016460
15:00−10сз468676 0.0 1017636
18:00−13сз359294 0.0 101985
21:00−14сз349460 0.0 102179
10 марта, ср
ср1000:00−16сз479223 0.0 1022130
03:00−18сз349631 0.0 102357
06:00−20сз34960 0.0 102581
09:00−19ссз36930 0.0 1026236
12:00−16ссз358427 0.0 1027358
15:00−14ссз348061 0.0 1027487
18:00−15с2393100 0.1 1026115
21:00−20св349495 0.1 102877
11 марта, чт
чт1100:00−22св33946 0.0 103035
03:00−23св33973 0.0 103233
06:00−24св33960 0.0 103341
09:00−22св23930 0.0 1033118
12:00−17всв22790 0.0 1034311
15:00−15в12750 0.0 1033332
18:00−18всв12840 0.0 103320
21:00−20всв12830 0.0 103420
12 марта, пт
пт1200:00−20юв11830 0.0 103420
03:00−20ююв22870 0.0 103420
06:00−20ююв23850 0.0 103420
09:00−16ююв36820 0.0 1033189
12:00−11ююв47780 0.0 1032422
15:00−8ю59763 0.0 1032614
18:00−10ююв487969 0.0 1030128
21:00−12ююв5108284 0.0 1029202
13 марта, сб
сб1300:00−11ююв5147899 0.0 1028325
03:00−9ю61575100 0.0 1027534
06:00−9ю71673100 0.0 1025569
09:00−8ю81571100 0.0 1024774
12:00−6ююз91591100 0.3 1024810
15:00−4ююз81394100 1.6 1023838
18:00−4ююз71395100 0.8 1021678
21:00−3ююз61395100 1.4 1021552